Weather History for Los Angeles Downtown, CA

Change the Weather History Date:

Monday, December 24, 2012

  Actual Average Record
Temperature  
Mean Temperature 57 °F 57 °F  
Max Temperature 64 °F 67 °F 87 °F (1985)
Min Temperature 49 °F 47 °F 33 °F (1879)
Degree Days  
Heating Degree Days 8 8  
Month to date heating degree days 146 181  
Since 1 July heating degree days 224 312  
Cooling Degree Days 0 0  
Month to date cooling degree days 0 0  
Year to date cooling degree days 1315 1240  
Growing Degree Days 5 (Base 50)    
Moisture  
Dew Point 52 °F    
Average Humidity 74    
Maximum Humidity 93    
Minimum Humidity 54    
Precipitation  
Precipitation 0.46 in 0.09 in 2.64 in (1971)
Month to date precipitation 1.38 1.64  
Year to date precipitation 7.37 14.24  
Since 1 July precipitation 2.44 3.63  
Sea Level Pressure  
Sea Level Pressure 30.07 in    
Wind  
Wind Speed 3 mph (East)    
Max Wind Speed 10 mph    
Max Gust Speed 15 mph    
Visibility 6 miles    
Events Rain    
T = Trace of Precipitation, MM = Missing Value Source: NWS Daily Summary

Daily Weather History Graph

Daily Weather History Graph

Search for Another Location

Airport:

Trip Planner

Search our weather history database for the weather conditions in past years. The results will help you decide how hot, cold, wet, or windy it might be!

Date:

Astronomy

Dec. 24, 2012 Rise Set
Actual Time 6:56 AM PST 4:49 PM PST
Civil Twilight 6:28 AM PST 5:17 PM PST
Nautical Twilight 5:57 AM PST 5:48 PM PST
Astronomical Twilight 5:26 AM PST 6:19 PM PST
Moon 2:17 PM PST (12/24) 3:42 AM PST (12/24)
Length of Visible Light 10h 49m
Length of Day
9h 53m
Waxing Gibbous, 89% of the Moon is Illuminated
Dec 24
Waxing Gibbous
Dec 28
Full
Jan 4
Last Quarter
Jan 11
New
Jan 18
First Quarter

Hourly Weather History & Observations

Time (PST) Temp. Dew Point Humidity Pressure Visibility Wind Dir Wind Speed Gust Speed Precip Events Conditions
12:07 AM 57.2 °F 51.8 °F 82% 30.12 in 10.0 mi ESE 3.5 mph - N/A   Overcast
12:31 AM 57.2 °F 51.8 °F 82% 30.11 in 10.0 mi Calm Calm - N/A   Overcast
12:47 AM 55.9 °F 52.0 °F 87% 30.12 in 9.0 mi East 3.5 mph - 0.00 in Rain Light Rain
1:02 AM 55.4 °F 48.2 °F 77% 30.11 in 7.0 mi Variable 3.5 mph - 0.00 in Rain Light Rain
1:47 AM 54.0 °F 50.0 °F 86% 30.11 in 9.0 mi Variable 4.6 mph - 0.00 in Rain Light Rain
2:10 AM 53.6 °F 51.8 °F 94% 30.11 in 5.0 mi ESE 4.6 mph - 0.01 in Rain Light Rain
2:15 AM 53.6 °F 51.8 °F 94% 30.10 in 4.0 mi East 6.9 mph - 0.01 in Rain Light Rain
2:47 AM 54.0 °F 51.1 °F 90% 30.10 in 3.0 mi Variable 5.8 mph - 0.04 in Rain Light Rain
2:55 AM 53.6 °F 51.8 °F 94% 30.09 in 2.5 mi East 8.1 mph - 0.01 in Rain Rain
3:01 AM 53.6 °F 51.8 °F 94% 30.09 in 2.5 mi East 9.2 mph - 0.01 in Rain Rain
3:05 AM 53.6 °F 51.8 °F 94% 30.08 in 3.0 mi East 10.4 mph - 0.02 in Rain Light Rain
3:21 AM 53.6 °F 51.8 °F 94% 30.08 in 2.5 mi Variable 5.8 mph - 0.03 in Rain Light Rain
3:28 AM 53.6 °F 51.8 °F 94% 30.09 in 2.0 mi Variable 3.5 mph - 0.05 in Rain Rain
3:40 AM 53.6 °F 51.8 °F 94% 30.09 in 1.8 mi ENE 5.8 mph - 0.12 in Rain Heavy Rain
3:47 AM 53.1 °F 51.1 °F 93% 30.09 in 2.5 mi Variable 5.8 mph - 0.15 in Rain Rain
3:50 AM 53.6 °F 51.8 °F 94% 30.09 in 3.0 mi East 5.8 mph - 0.00 in Rain Light Rain
3:56 AM 53.6 °F 51.8 °F 94% 30.08 in 2.5 mi East 8.1 mph - 0.02 in Rain Heavy Rain
4:10 AM 53.6 °F 51.8 °F 94% 30.08 in 3.0 mi ENE 6.9 mph - 0.07 in Rain Rain
4:24 AM 53.6 °F 51.8 °F 94% 30.07 in 2.5 mi Variable 4.6 mph - 0.10 in Rain Heavy Rain
4:30 AM 53.6 °F 51.8 °F 94% 30.07 in 2.0 mi Variable 5.8 mph - 0.12 in Rain Rain
4:37 AM 53.6 °F 51.8 °F 94% 30.07 in 3.0 mi Variable 4.6 mph - 0.14 in Rain Rain
4:47 AM 53.1 °F 51.1 °F 93% 30.06 in 3.0 mi East 6.9 mph - 0.15 in Rain Light Rain
4:55 AM 53.6 °F 51.8 °F 94% 30.06 in 3.0 mi East 6.9 mph - 0.01 in Rain Heavy Rain
4:58 AM 53.6 °F 51.8 °F 94% 30.06 in 2.5 mi Variable 6.9 mph - 0.02 in Rain Rain
5:06 AM 53.6 °F 51.8 °F 94% 30.06 in 3.0 mi East 8.1 mph - 0.03 in Rain Light Rain
5:28 AM 53.6 °F 51.8 °F 94% 30.07 in 4.0 mi Variable 4.6 mph - 0.05 in Rain Light Rain
5:37 AM 53.6 °F 51.8 °F 94% 30.07 in 2.5 mi Variable 4.6 mph - 0.06 in Rain Rain
5:47 AM 53.1 °F 51.1 °F 93% 30.07 in 2.5 mi Variable 5.8 mph - 0.08 in Rain Light Rain
5:50 AM 53.6 °F 51.8 °F 94% 30.07 in 3.0 mi Variable 4.6 mph - 0.00 in Rain Light Rain
6:47 AM 53.1 °F 51.1 °F 93% 30.08 in 9.0 mi Variable 3.5 mph - 0.02 in Rain Light Rain
7:47 AM 54.0 °F 52.0 °F 93% 30.07 in 10.0 mi NNE 3.5 mph - 0.02 in   Overcast
7:59 AM 53.6 °F 51.8 °F 94% 30.07 in 10.0 mi Calm Calm - N/A   Overcast
8:43 AM 55.4 °F 51.8 °F 88% 30.08 in 10.0 mi Calm Calm - N/A   Overcast
8:47 AM 55.0 °F 52.0 °F 89% 30.08 in 10.0 mi East 4.6 mph - N/A   Overcast
9:01 AM 55.4 °F 51.8 °F 88% 30.09 in 10.0 mi East 4.6 mph - N/A   Overcast
9:20 AM 55.4 °F 51.8 °F 88% 30.09 in 2.5 mi Variable 3.5 mph - N/A   Overcast
9:27 AM 55.4 °F 53.6 °F 94% 30.10 in 1.8 mi Variable 3.5 mph - 0.00 in Rain Light Rain
9:47 AM 55.0 °F 53.1 °F 93% 30.09 in 1.8 mi Variable 5.8 mph - 0.00 in Rain Light Rain
9:52 AM 55.4 °F 53.6 °F 94% 30.09 in 2.0 mi Variable 4.6 mph - 0.00 in Rain Light Rain
10:17 AM 55.4 °F 53.6 °F 94% 30.09 in 3.0 mi Variable 3.5 mph - 0.00 in   Overcast
10:36 AM 55.4 °F 53.6 °F 94% 30.09 in 7.0 mi Variable 3.5 mph - 0.00 in   Overcast
10:47 AM 57.0 °F 53.1 °F 87% 30.09 in 10.0 mi NE 3.5 mph - 0.00 in   Overcast
11:47 AM 57.0 °F 53.1 °F 87% 30.06 in 4.0 mi Calm Calm - 0.00 in Rain Light Rain
12:47 PM 59.0 °F 53.1 °F 81% 30.04 in 10.0 mi Calm Calm - 0.00 in   Overcast
1:17 PM 60.8 °F 53.6 °F 77% 30.01 in 10.0 mi Calm Calm - N/A   Scattered Clouds
1:25 PM 60.8 °F 53.6 °F 77% 30.01 in 10.0 mi Calm Calm - N/A   Mostly Cloudy
1:28 PM 60.8 °F 55.4 °F 82% 30.01 in 10.0 mi Calm Calm - N/A   Scattered Clouds
1:36 PM 60.8 °F 53.6 °F 77% 30.01 in 10.0 mi Calm Calm - N/A   Mostly Cloudy
1:47 PM 61.0 °F 54.0 °F 78% 30.00 in 10.0 mi Calm Calm - N/A   Overcast
2:09 PM 62.6 °F 53.6 °F 72% 30.00 in 10.0 mi Calm Calm - N/A   Scattered Clouds
2:47 PM 61.0 °F 53.1 °F 75% 30.00 in 10.0 mi Calm Calm - N/A   Clear
3:21 PM 62.6 °F 53.6 °F 72% 30.00 in 10.0 mi Calm Calm - N/A   Mostly Cloudy
3:39 PM 62.6 °F 51.8 °F 68% 30.00 in 10.0 mi Variable 3.5 mph - N/A   Mostly Cloudy
3:47 PM 62.1 °F 53.1 °F 72% 30.00 in 10.0 mi Calm Calm - N/A   Scattered Clouds
4:47 PM 57.9 °F 53.1 °F 84% 30.00 in 10.0 mi West 3.5 mph - N/A   Clear
5:47 PM 55.9 °F 53.1 °F 90% 30.03 in 10.0 mi Calm Calm - N/A   Clear
6:47 PM 55.0 °F 52.0 °F 89% 30.03 in 10.0 mi Calm Calm - N/A   Clear
7:47 PM 54.0 °F 51.1 °F 90% 30.03 in 10.0 mi West 3.5 mph - N/A   Clear
8:47 PM 53.1 °F 37.9 °F 57% 30.05 in 10.0 mi Calm Calm - N/A   Clear
9:47 PM 50.0 °F 39.0 °F 66% 30.07 in 10.0 mi Calm Calm - N/A   Clear
10:47 PM 48.9 °F 44.1 °F 83% 30.08 in 10.0 mi Calm Calm - N/A   Clear
11:47 PM 48.9 °F 46.0 °F 90% 30.09 in 8.0 mi Calm Calm - N/A   Clear